"Pseudo-MPEC" for C1FHCL2

Created 2019 Nov 10 1:07:09 UT using Find_Orb

Click here for an explanation of pseudo-MPECs

 
 Astrometry: 
     C1FHCL2  C2019 11 08.32722 04 14 48.45 +12 32 45.0    ~B88b 20.6 GVNEOCPG96
     C1FHCL2  C2019 11 08.33146 04 14 48.02 +12 32 45.6    ~B88b 20.6 GVNEOCPG96
     C1FHCL2  C2019 11 08.33572 04 14 47.55 +12 32 45.8    ~B88b 20.9 GVNEOCPG96
     C1FHCL2  C2019 11 08.33997 04 14 47.08 +12 32 45.7    ~B88b 20.9 GVNEOCPG96
     C1FHCL2  C2019 11 08.36516 04 14 44.31 +12 32 46.0    ~B89M 21.2 GVNEOCPG96
     C1FHCL2  C2019 11 08.36993 04 14 43.81 +12 32 46.0    ~B89M 20.6 GVNEOCPG96
     C1FHCL2  C2019 11 08.37469 04 14 43.32 +12 32 46.0    ~B89M 21.0 GVNEOCPG96
     C1FHCL2  C2019 11 08.37946 04 14 42.78 +12 32 46.1    ~B89M 20.9 GVNEOCPG96
     C1FHCL2  C2019 11 08%#6tpUAstrometrylE71K4u9Pje:JN.DHBW0ZY='6-V-=H,TJZ9mF52
     C1FHCL2  C2019 11 08sC^8]bAk`ig=S!?3?!#W0C%=R*52w(_@@xW\?B.C_bDYO=4RDk=AF52
     C1FHCL2  C2019 11 08J4sTredacted;I+Q+kKC\b^_$'xfWoCkg6?/aS(oVh!clicka3LgF52
     C1FHCL2  C2019 11 080c*LGiP)gqcyf,DBN[a]v:?kJalfNs-^\7d]Z;@H2)!R6EuZ6!V+F52
     C1FHCL2  C2019 11 09.22485504 13 23.33 +12 33 01.9    ~B967 20.3 GVNEOCPH01
     C1FHCL2  C2019 11 09.22893804 13 22.87 +12 33 02.1    ~B967 20.3 GVNEOCPH01
     C1FHCL2  C2019 11 09.23922904 13 21.69 +12 33 02.7    ~B967 20.3 GVNEOCPH01
     C1FHCL2  C2019 11 09.24520104 13 21.01 +12 33 03.1    ~B967 20.6 GVNEOCPH01
     C1FHCL2  C2019 11 09.26852 04 13 18.51 +12 33 05.5    ~B97M 20.9 GVNEOCPG96
     C1FHCL2  C2019 11 09.27091 04 13 18.20 +12 33 05.6    ~B97M 20.9 GVNEOCPG96
     C1FHCL2  C2019 11 09.27336 04 13 17.92 +12 33 05.6    ~B97M 20.7 GVNEOCPG96
     C1FHCL2  C2019 11 09.27575 04 13 17.63 +12 33 05.8    ~B97M 20.9 GVNEOCPG96
     C1FHCL2 pC2019 11 09tU6HAdhereuOforIW@go!(iIns$!cIP'*fexplanation\:q0p'FL01
     C1FHCL2 IC2019 11 09sH1nQ4r!OM^PRkT-T#]5aJKVA\H\yKGnV5NN7#!OAQ[3+iAcL1$PL01
     C1FHCL2 pC2019 11 09\ZrratU:y.Vl6^]9:25kmHQ6CncTr97-ecn:r.mOqIA-b$!66G]8L01

Station data:
(F52) Pan-STARRS 2, Haleakala  (N20.707384 W156.255910)  US/Hawaii. 1.8-m
   Ritchey-Chrétien + CCD.
(G96) Mt. Lemmon Survey  (N32.442754 W110.788720)  US/Arizona.  Observers T.
   A. Pruyne, B. M. Africano, E. J. Christensen, G. A. Farneth, D. C. Fuls,
   A. R. Gibbs, A. D. Grauer, H. Gröller, J. A. Johnson, R. A. Kowalski, S.
   M. Larson, G. J. Leonard, D. Rankin, R. L. Seaman, F. C. Shelly. 1.5-m
   reflector + 10K CCD.
(H01) Magdalena Ridge Observatory, Socorro  (N33.984833 W107.189333)  US/New
   Mexico.  Observers W. H. Ryan, E. V. Ryan. Measurer W. H. Ryan. 2.4-m
   f/8.9 reflector + CCD.
(L01) Višnjan Observatory, Tičan  (N45.290900 E13.749300)  Croatia.
   Observers K. Korlević, E. Pettarin. Measurer E. Pettarin. 1.0-m f/2.9
   reflector + CCD.

Orbital elements:  C1FHCL2
   Perihelion 2020 Feb 8.628178 +/- 0.639 TT = 15:04:34 (JD 2458888.128178)
Epoch 2019 Nov  9.0 TT = JDT 2458796.5   Earth MOID: 0.0114   Ve: 0.0076
M 282.55939648 +/- 1.0              Ma: 0.0624                AutoNEOCP
n   0.84516144 +/- 0.00565          Peri.  102.90878 +/- 0.16
a   1.10792304 +/- 0.00494          Node    65.32114 +/- 0.13
e   0.3715963 +/- 0.00833           Incl.    4.76698 +/- 0.10
P   1.17/425.95d           H 23.6   G  0.15   U  9.3  
q 0.69622293 +/- 0.00618    Q 1.51962316 +/- 0.0159
From 23 observations 2019 Nov. 8-9 (37.5 hr); mean residual 0".27
Residuals in arcseconds: 
191108 G96  .23-  .28-    191108 F52  .22-  .10-    191109 G96  .39+  .48+    
191108 G96  .20+  .22+    191108 F52  .13+  .34-    191109 G96  .08-  .45+    
191108 G96  .09+  .32+    191108 F52  .07+  .01-    191109 G96  .00   .32+    
191108 G96  .03-  .12+    191108 F52  .24+  .47-    191109 G96  .16-  .40+    
191108 G96  .44-  .02-    191109 H01  .06-  .27+    191109 L01  .38+  .33+    
191108 G96  .16-  .08-    191109 H01  .01-  .22+    191109 L01  .07-  .75-    
191108 G96  .26+  .13-    191109 H01  .08-  .20+    191109 L01  .28-  .51-    
191108 G96  .03-  .08-    191109 H01  .00   .26+    

Ephemerides (geocentric):
Date (UTC) HH   RA              Dec         delta   r     elong  mag " sig PA
---- -- -- --  -------------   -----------  ------ ------ -----  --- ---- ---
2019 11 10 01  04 11 55.668   +12 33 46.75  .18013 1.1628 161.7 21.0 .569 143
2019 11 10 02  04 11 51.095   +12 33 48.28  .17984 1.1626 161.8 21.0 .571 144
2019 11 10 03  04 11 46.502   +12 33 49.82  .17956 1.1623 161.8 21.0 .573 145
2019 11 10 04  04 11 41.891   +12 33 51.38  .17927 1.1621 161.9 21.0 .575 146
2019 11 10 05  04 11 37.260   +12 33 52.97  .17899 1.1619 161.9 21.0 .576 148
2019 11 10 06  04 11 32.610   +12 33 54.57  .17870 1.1616 162.0 21.0 .578 149
2019 11 10 07  04 11 27.941   +12 33 56.20  .17842 1.1614 162.0 21.0 .580 151
2019 11 10 08  04 11 23.252   +12 33 57.85  .17813 1.1611 162.1 21.0 .581 153
2019 11 10 09  04 11 18.544   +12 33 59.51  .17785 1.1609 162.1 21.0 .583 154
2019 11 10 10  04 11 13.816   +12 34 01.20  .17757 1.1607 162.2 21.0 .585 156
2019 11 10 11  04 11 09.068   +12 34 02.91  .17728 1.1604 162.3 21.0 .588 158
2019 11 10 12  04 11 04.301   +12 34 04.64  .17700 1.1602 162.3 21.0 .591 160
2019 11 10 13  04 10 59.514   +12 34 06.39  .17671 1.1599 162.4 21.0 .594 162
2019 11 10 14  04 10 54.707   +12 34 08.16  .17643 1.1597 162.4 21.0 .597 164
2019 11 10 15  04 10 49.880   +12 34 09.95  .17615 1.1595 162.5 21.0 .602 166
2019 11 10 16  04 10 45.033   +12 34 11.76  .17586 1.1592 162.5 21.0 .607 168
2019 11 10 17  04 10 40.166   +12 34 13.60  .17558 1.1590 162.6 21.0 .613 171
2019 11 10 18  04 10 35.279   +12 34 15.45  .17530 1.1587 162.6 20.9 .620 173
2019 11 10 19  04 10 30.372   +12 34 17.33  .17501 1.1585 162.7 20.9 .628 175
2019 11 10 20  04 10 25.444   +12 34 19.23  .17473 1.1583 162.8 20.9 .637 178
2019 11 10 21  04 10 20.496   +12 34 21.15  .17445 1.1580 162.8 20.9 .647   0
2019 11 10 22  04 10 15.528   +12 34 23.09  .17417 1.1578 162.9 20.9 .658   3
2019 11 10 23  04 10 10.539   +12 34 25.05  .17388 1.1575 162.9 20.9 .671   5
2019 11 11 00  04 10 05.529   +12 34 27.04  .17360 1.1573 163.0 20.9 .686   8
2019 11 11 01  04 10 00.499   +12 34 29.04  .17332 1.1571 163.0 20.9 .701  10
2019 11 11 02  04 09 55.448   +12 34 31.07  .17304 1.1568 163.1 20.9 .719  13
2019 11 11 03  04 09 50.377   +12 34 33.12  .17276 1.1566 163.1 20.9 .738  15
2019 11 11 04  04 09 45.284   +12 34 35.19  .17247 1.1563 163.2 20.9 .759  17
2019 11 11 05  04 09 40.171   +12 34 37.29  .17219 1.1561 163.3 20.9 .781  20
2019 11 11 06  04 09 35.036   +12 34 39.40  .17191 1.1559 163.3 20.9 .805  22
2019 11 11 07  04 09 29.880   +12 34 41.54  .17163 1.1556 163.4 20.9 .831  24
2019 11 11 08  04 09 24.704   +12 34 43.70  .17135 1.1554 163.4 20.9 .859  26
2019 11 11 09  04 09 19.506   +12 34 45.88  .17107 1.1551 163.5 20.9 .888  28
2019 11 11 10  04 09 14.286   +12 34 48.09  .17079 1.1549 163.5 20.9 .920  30
2019 11 11 11  04 09 09.046   +12 34 50.31  .17051 1.1546 163.6 20.9 .953  32
2019 11 11 12  04 09 03.783   +12 34 52.56  .17023 1.1544 163.7 20.8 .988  34
2019 11 11 13  04 08 58.500   +12 34 54.83  .16995 1.1542 163.7 20.8 1.03  36
2019 11 11 14  04 08 53.194   +12 34 57.13  .16967 1.1539 163.8 20.8 1.06  38
2019 11 11 15  04 08 47.867   +12 34 59.44  .16939 1.1537 163.8 20.8 1.10  39
2019 11 11 16  04 08 42.518   +12 35 01.78  .16911 1.1534 163.9 20.8 1.15  41
2019 11 11 17  04 08 37.147   +12 35 04.14  .16883 1.1532 163.9 20.8 1.19  42
2019 11 11 18  04 08 31.755   +12 35 06.53  .16855 1.1530 164.0 20.8 1.24  44
2019 11 11 19  04 08 26.340   +12 35 08.94  .16827 1.1527 164.0 20.8 1.29  45
2019 11 11 20  04 08 20.903   +12 35 11.37  .16799 1.1525 164.1 20.8 1.34  47
2019 11 11 21  04 08 15.444   +12 35 13.82  .16771 1.1522 164.2 20.8 1.39  48
2019 11 11 22  04 08 09.962   +12 35 16.30  .16743 1.1520 164.2 20.8 1.44  49
2019 11 11 23  04 08 04.459   +12 35 18.80  .16715 1.1517 164.3 20.8 1.50  50
2019 11 12 00  04 07 58.932   +12 35 21.32  .16687 1.1515 164.3 20.8 1.55  51